[[{"header":{"parameterUnit":"m.s-1","parameterCategory":1,"la1":30.2992,"la2":30.254,"lo1":-89.0895,"lo2":-89.0443,"dy":0.0025,"dx":0.0025,"nx":19,"ny":19,"refTime":"2026-05-13T03:00:00:Z","depth":0,"parameterNumber":2,"parameterNumberName":"U-component_of_WINDS"},"data":[0,0,0,-1.5801,-1.5802,-1.5838,-1.5838,-1.5894,-1.5895,0,0,0,0,0,0,0,0,0,0,0,-1.5794,-1.5795,-1.5801,-1.5802,-1.5838,-1.5838,-1.5894,-1.5895,0,0,0,0,0,0,0,0,0,0,0,-1.5794,-1.5795,-1.5795,-1.5803,-1.5838,-1.5838,-1.5894,-1.5864,0,0,0,0,0,0,0,0,0,0,-1.5828,-1.5823,-1.5794,-1.5795,-1.5803,-1.5838,-1.5838,-1.5862,-1.5866,-1.5881,0,-1.5894,0,-1.5895,-1.5899,-1.5899,0,0,0,-1.58,-1.5821,-1.5827,-1.5795,-1.5803,-1.5838,-1.5821,-1.5864,-1.5868,-1.5886,-1.5895,-1.5896,-1.5896,-1.5899,-1.59,-1.5992,-1.5993,0,0,-1.5798,-1.5803,-1.5824,-1.583,-1.5822,-1.582,-1.5823,-1.5866,-1.5877,-1.5895,-1.5898,-1.5897,-1.59,-1.59,-1.5992,-1.5992,0,0,0,-1.5794,-1.5802,-1.5807,-1.5828,-1.5833,-1.5821,-1.5824,-1.5875,-1.5876,-1.5898,-1.5898,-1.59,-1.5901,-1.5991,-1.5992,-1.6022,0,0,0,-1.5793,-1.5799,-1.5806,-1.5809,-1.5832,-1.5854,-1.5832,-1.5873,-1.5878,-1.5897,-1.59,-1.5901,-1.599,-1.5991,-1.602,-1.6037,0,0,0,-1.5791,-1.5799,-1.5805,-1.5809,-1.5825,-1.5853,-1.5857,-1.5874,-1.5878,-1.5899,-1.5902,-1.599,-1.5991,-1.6018,-1.6033,-1.6064,0,0,0,-1.579,-1.5831,-1.5805,-1.5851,-1.5824,-1.5871,-1.5856,-1.5891,-1.5913,-1.59,-1.599,-1.5992,-1.6018,-1.6031,-1.6062,-1.6091,-1.6103,0,0,-1.5844,-1.5837,-1.5864,-1.5842,-1.5894,-1.5865,-1.5922,-1.5939,-1.5938,-1.5975,-1.5977,-1.6021,-1.6033,-1.6063,-1.6166,-1.6176,0,0,0,-1.5883,-1.5902,-1.5915,-1.5935,-1.5948,-1.5962,-1.5969,-1.5976,-1.6007,-1.5957,-1.6039,-1.6046,-1.6064,-1.6078,-1.6086,-1.6102,-1.5998,-1.5998,-1.5998,-1.5965,-1.5961,-1.6006,-1.6007,-1.6027,-1.6035,-1.6053,-1.6064,-1.6053,-1.6073,-1.6084,-1.6147,-1.6164,-1.617,-1.6187,-1.6098,-1.6098,-1.6099,-1.6099,-1.6045,-1.6073,-1.6059,-1.6098,-1.6095,-1.6128,-1.6139,-1.6131,-1.6164,-1.6138,-1.6153,-1.6126,-1.618,-1.6195,-1.6101,-1.61,-1.61,-1.61,-1.61,-1.61,-1.6113,-1.612,-1.6151,-1.6176,-1.6176,-1.6209,-1.6204,-1.6201,-1.6216,-1.623,-1.6229,-1.623,-1.6223,-1.6223,-1.6223,-1.6223,-1.6223,-1.6223,-1.6155,-1.6162,-1.6188,-1.6207,-1.6221,-1.624,-1.625,-1.6265,-1.6281,-1.6275,-1.6275,-1.6266,-1.6185,-1.6166,-1.6227,-1.6226,-1.6226,-1.6226,-1.6225,-1.624,-1.622,-1.6261,-1.6276,-1.6299,-1.6327,-1.6321,-1.6352,-1.6364,-1.6381,-1.6368,-1.6308,-1.6302,-1.6296,-1.628,-1.6367,-1.6367,-1.6367,-1.6367,-1.6287,-1.6283,-1.6326,-1.635,-1.6372,-1.6372,-1.6423,-1.6433,-1.6441,-1.6449,-1.6436,-1.6414,-1.6408,-1.6405,-1.6397,-1.6382,-1.6493,-1.6493,-1.6493,-1.6341,-1.6339,-1.6381,-1.6387,-1.6406,-1.6423,-1.6472,-1.6503,-1.6508,-1.6498,-1.6456,-1.6451,-1.6416,-1.6404,-1.6394,-1.6381,-1.6354,0,0]},{"header":{"parameterUnit":"m.s-1","parameterCategory":1,"la1":30.2992,"la2":30.254,"lo1":-89.0895,"lo2":-89.0443,"dy":0.0025,"dx":0.0025,"nx":19,"ny":19,"refTime":"2026-05-13T03:00:00:Z","depth":0,"parameterNumber":3,"parameterNumberName":"V-component_of_WINDS"},"data":[0,0,0,-0.5853,-0.5851,-0.579,-0.579,-0.5708,-0.5708,0,0,0,0,0,0,0,0,0,0,0,-0.5869,-0.5869,-0.5853,-0.5851,-0.579,-0.579,-0.5709,-0.5708,0,0,0,0,0,0,0,0,0,0,0,-0.587,-0.5869,-0.5868,-0.5851,-0.579,-0.579,-0.5709,-0.5756,0,0,0,0,0,0,0,0,0,0,-0.5816,-0.583,-0.5869,-0.5868,-0.5851,-0.579,-0.579,-0.5758,-0.5753,-0.5735,0,-0.5719,0,-0.5712,-0.5702,-0.5702,0,0,0,-0.5852,-0.5835,-0.5819,-0.5868,-0.585,-0.579,-0.5818,-0.5755,-0.5749,-0.5728,-0.5718,-0.5715,-0.5711,-0.5702,-0.5701,-0.5599,-0.5599,0,0,-0.5855,-0.5857,-0.5824,-0.5816,-0.5825,-0.582,-0.5816,-0.5752,-0.5741,-0.5718,-0.5713,-0.571,-0.5701,-0.57,-0.56,-0.5599,0,0,0,-0.5865,-0.586,-0.5846,-0.5819,-0.5808,-0.5818,-0.5814,-0.5744,-0.5739,-0.5713,-0.5709,-0.5701,-0.57,-0.56,-0.5599,-0.5578,0,0,0,-0.5867,-0.5865,-0.5848,-0.5848,-0.5809,-0.5775,-0.5807,-0.5744,-0.5736,-0.5709,-0.57,-0.5699,-0.5601,-0.56,-0.558,-0.5568,0,0,0,-0.5874,-0.5866,-0.5857,-0.5849,-0.5823,-0.5776,-0.5768,-0.5742,-0.5734,-0.5702,-0.5698,-0.5601,-0.56,-0.5582,-0.5571,-0.5544,0,0,0,-0.5882,-0.5837,-0.5857,-0.5805,-0.5823,-0.5763,-0.5768,-0.5723,-0.5693,-0.57,-0.5601,-0.5599,-0.5582,-0.5572,-0.5545,-0.5523,-0.5513,0,0,-0.5827,-0.583,-0.58,-0.5816,-0.5754,-0.5773,-0.5707,-0.5676,-0.567,-0.5623,-0.5621,-0.558,-0.5571,-0.5544,-0.5455,-0.5447,0,0,0,-0.5783,-0.5762,-0.5745,-0.5717,-0.5694,-0.5673,-0.5652,-0.5641,-0.5602,-0.5647,-0.5561,-0.5556,-0.554,-0.5529,-0.5523,-0.551,-0.5594,-0.5594,-0.5594,-0.5708,-0.5705,-0.5655,-0.5644,-0.5617,-0.5597,-0.5575,-0.5557,-0.5559,-0.5539,-0.5526,-0.5472,-0.546,-0.5455,-0.5441,-0.5512,-0.5512,-0.5512,-0.5512,-0.5628,-0.5598,-0.5605,-0.5559,-0.5555,-0.5516,-0.5495,-0.5499,-0.5462,-0.5482,-0.5467,-0.5491,-0.5446,-0.5435,-0.551,-0.551,-0.5511,-0.5511,-0.5511,-0.5581,-0.5566,-0.5554,-0.5515,-0.5485,-0.5475,-0.5441,-0.5437,-0.5434,-0.542,-0.5407,-0.5407,-0.5408,-0.5413,-0.5413,-0.5413,-0.5413,-0.5413,-0.5413,-0.5536,-0.5524,-0.5496,-0.5468,-0.5451,-0.5428,-0.5409,-0.5391,-0.5371,-0.5372,-0.5372,-0.5378,-0.5442,-0.546,-0.541,-0.541,-0.5411,-0.5411,-0.5411,-0.546,-0.5477,-0.5433,-0.5417,-0.5385,-0.5357,-0.5354,-0.5319,-0.5304,-0.5287,-0.5296,-0.5344,-0.5347,-0.5352,-0.5367,-0.5296,-0.5296,-0.5296,-0.5296,-0.5421,-0.5422,-0.5379,-0.5352,-0.5326,-0.5319,-0.527,-0.5255,-0.5241,-0.5232,-0.5241,-0.5259,-0.5265,-0.5265,-0.5272,-0.5286,-0.5196,-0.5196,-0.5195,-0.5374,-0.5374,-0.5333,-0.5322,-0.5298,-0.5277,-0.5231,-0.52,-0.5188,-0.5191,-0.5225,-0.5229,-0.5259,-0.5268,-0.5274,-0.5285,-0.531,0,0]}]]